{"data":{"norad_id":54170,"epoch":"2026-09-19T12:25:46.648128Z","epoch_age_seconds":174654,"freshness":"STALE","line1":"1 54170U 22141P   26262.51790102  .00000302  00000+0  20068-4 0  9994","line2":"2 54170  53.1604 198.2855 0001302  93.8983 266.2169 15.34391077215338","mean_motion":15.34391077,"eccentricity":0.0001302,"inclination_deg":53.1604,"raan_deg":198.2855,"arg_perigee_deg":93.8983,"mean_anomaly_deg":266.2169,"bstar":2.0068e-5,"rev_number":21533,"period_min":93.848303837601,"perigee_km":461.83908051974,"apogee_km":463.6204422244,"semimajor_km":6840.8667613721,"source":"CELESTRAK","updated_at":"2026-09-21T09:00:33.090322Z"}}